Location: Brookview Estates
(36.0476°N, 86.6931°W)
Time: 17:43:48
(UTC+00:00)

Envisat - Visible Passes

Search period start: 14 May 2021 00:00
Search period end: 24 May 2021 00:00
Orbit: 764 x 766 km, 98.1° (Epoch: 13 May)

Date Brightness Start Highest point End Pass type
(mag) Time Alt. Az. Time Alt. Az. Time Alt. Az.
15 May 6.1 09:53:07 10° ENE 09:54:46 11° E 09:56:24 10° ESE visible
20 May 5.7 10:05:36 10° NE 10:08:49 17° E 10:12:01 10° SE visible
23 May 5.9 09:55:04 10° ENE 09:57:15 13° E 09:59:26 10° ESE visible
